STARLINK-1453, 45670

Orbit data source: Space-Track

STARLINK-1453, 45670 is a payload satellite owned by SpaceX/Seattle (US) in LEO that was launched on Thu, 04 Jun 2020 UTC via an FALCON 9 launch vehicle from the Air Force Eastern Test Range (AFETR). Payload-class satellites include a variety of spacecraft equipped with specific instruments for various scientific and technological missions. These include communications satellites like Starlink; space stations such as the ISS; scientific satellites like the Hubble; Earth observation satellites from companies like Planet Labs, Umbra, and HawkEye 360; GPS; miniature CubeSats for education and research; and military/defense satellites.

Loading next visibility...
Identifier
45670, 2020-035P
Orbit
LEO
Country
Flag of USUS
Related business
Manufacturer
SpaceX/Seattle
Mission
Partially operational Commercial Communications
Bus & Motor
STARLINK, Unknown motor
Mass
260 kg wet, ~248 kg dry
Launch date (UTC)
2020-06-04 (6 years ago)
Launch vehicle
FALCON 9
Launch site
Air Force Eastern Test Range (AFETR)
Object type
Payload
Rocket body
Debris
Shape & HBR
Box + 1 Pan, 10.1 m
Radar Cross Section
13.562 m², Large (>1 m²)

Expand to show TLE details & history
Last TLE update: 7 hours ago

TLE from 7 hours ago
0 STARLINK-1453
1 45670U 20035P   26112.14968086  .00092341  00000-0  10259-2 0  9994
2 45670  53.0422 162.4172 0003121  18.3596 341.7529 15.62166864326144
Epoch: 2026-04-22T03:35Z
TLE epoch observation values (Epoch: 2026-04-22T03:35:32.426Z)
Latitude
-0.00003°
Longitude
-101.68318°
Altitude
380.295 km
Speed
7.684 km/s
True Right ascension
10h 49m 40s
True Declination
0° 00' 00"
Sunlit
Object was in full shadow at epoch
Visualization orbit readout
Latitude
Unknown
Longitude
Unknown
Altitude
Unknown
Speed
Unknown
Apparent Right ascension
Unknown
Apparent Declination
Unknown
Sunlit
N/A
Visualization observer readout
Local Sidereal Time
17:50:18
Azimuth
Unknown
Elevation
Unknown
Doppler factor
Unknown
Orbital elements
Apogee altitude
383.788 km
Perigee altitude
379.569 km
Semi-major axis
6,759.815 km
Eccentricity
0.00031
Inclination
53.0422°
RAAN
162.4172°
Arg. of periapsis
18.3596°
True anomaly
341.7417°
Mean anomaly
341.7529°
Eccentric anomaly
341.7473°
Mean motion
3.90518 °/min
Orbital period
92.19 mins
BSTAR
0.0010259
Loading maneuver chart data...
Computing Atmospheric mass density...
Loading historical data...
Loading historical data...
Loading historical data...
Loading historical data...
Loading historical data...
Loading historical data...
Loading historical data...

Documentation

Showing up to 5 results
|